Location: Unspecified
(52.4292°N, 19.3359°E)
Time: 22:58:27
(UTC+02:00)

A-11 Canister half - Pass Details

Date: 23 May 2024
Orbit: 1524 x 1683 km, 47.3° (Epoch: 19 June)

Event Time Altitude Azimuth Distance (km) Brightness Sun altitude
Rises 22:24:11 0° 235° (SW) 4,685 11.5 -11.1°
Reaches altitude 10° 22:27:17 10° 230° (SW) 3,716 10.9 -11.3°
Maximum altitude 22:36:17 53° 158° (SSE) 1,878 9.1 -12.0°
Drops below altitude 10° 22:45:34 10° 85° (E) 3,836 10.9 -12.7°
Sets 22:48:49 0° 81° (E) 4,845 11.4 -12.9°
